Orbital Elements at Epoch 2459000.5 (2020-May-31.0) TDB
Reference: JPL 16 (heliocentric ecliptic J2000)
Element | Value | Uncertainty (1-sigma) | Units |
e | .2001903474416396 | 4.9831e-08 | |
a | 2.593252320439478 | 1.8584e-08 | au |
q | 2.074108237406861 | 1.3202e-07 | au |
i | 5.884902780130345 | 7.8572e-06 | deg |
node | 335.6819990811616 | 3.5927e-05 | deg |
peri | 306.5500937294277 | 3.9532e-05 | deg |
M | 78.4017627638511 | 1.6751e-05 | deg |
tp | 2458668.308193631416 (2019-Jul-03.80819363) | 6.9866e-05 | TDB |
period | 1525.336243432392 4.18 | 1.6397e-05 4.489e-08 | d yr |
n | .2360135357368215 | 2.537e-09 | deg/d |
Q | 3.112396403472095 | 2.2304e-08 | au |
|
| | Orbit Determination Parameters
Additional Information
|